| time (UTC) | temp C | wind direction | speed KPH | gust KPH | rain 1hr cm | rain 24hr cm | rain mn cm | humidity % | barometer mb |
| 20260502180603 | 15 | 251 | 8.0 | 19.3 | 0.00 | 0.00 | 0.00 | 42 | 1018.3 |
| 20260502170103 | 12 | 280 | 9.7 | 20.9 | 0.00 | 0.00 | 0.00 | 44 | 1019.6 |
| 20260502164103 | 12 | 210 | 6.4 | 14.5 | 0.00 | 0.00 | 0.00 | 45 | 1019.6 |
| 20260502163603 | 12 | 253 | 8.0 | 16.1 | 0.00 | 0.00 | 0.00 | 45 | 1019.6 |
| 20260502163103 | 12 | 268 | 9.7 | 16.1 | 0.00 | 0.00 | 0.00 | 44 | 1019.6 |
| 20260502162603 | 12 | 288 | 12.9 | 19.3 | 0.00 | 0.00 | 0.00 | 44 | 1019.6 |
| 20260502162103 | 12 | 277 | 9.7 | 19.3 | 0.00 | 0.00 | 0.00 | 45 | 1019.6 |
| 20260502161103 | 12 | 252 | 8.0 | 19.3 | 0.00 | 0.00 | 0.00 | 44 | 1019.6 |
| 20260502160602 | 12 | 277 | 3.2 | 14.5 | 0.00 | 0.00 | 0.00 | 47 | 1019.6 |
| 20260502152103 | 11 | 218 | 8.0 | 16.1 | 0.00 | 0.00 | 0.00 | 49 | 1020.0 |
| 20260502151603 | 10 | 214 | 3.2 | 20.9 | 0.00 | 0.00 | 0.00 | 52 | 1020.0 |
| 20260502151103 | 10 | 249 | 9.7 | 16.1 | 0.00 | 0.00 | 0.00 | 50 | 1020.0 |
| 20260502150603 | 10 | 246 | 8.0 | 16.1 | 0.00 | 0.00 | 0.00 | 50 | 1020.0 |
| 20260502150103 | 10 | 242 | 4.8 | 19.3 | 0.00 | 0.00 | 0.00 | 53 | 1020.3 |
| 20260502130603 | 6 | 266 | 3.2 | 4.8 | 0.00 | 0.00 | 0.00 | 62 | 1020.7 |
| 20260502122603 | 4 | 227 | 3.2 | 8.0 | 0.00 | 0.00 | 0.00 | 64 | 1020.7 |
| 20260502122103 | 4 | 257 | 0.0 | 4.8 | 0.00 | 0.00 | 0.00 | 64 | 1020.7 |
| 20260502121603 | 3 | 257 | 0.0 | 3.2 | 0.00 | 0.00 | 0.00 | 64 | 1020.7 |
| 20260502121103 | 3 | 256 | 1.6 | 4.8 | 0.00 | 0.00 | 0.00 | 65 | 1020.7 |
| 20260502120603 | 3 | 257 | 0.0 | 1.6 | 0.00 | 0.00 | 0.00 | 65 | 1020.7 |
| 20260502115603 | 3 | 271 | 1.6 | 4.8 | 0.00 | 0.00 | 0.00 | 64 | 1020.3 |
| 20260502114103 | 3 | 234 | 1.6 | 4.8 | 0.00 | 0.00 | 0.00 | 64 | 1020.3 |
| 20260502113604 | 3 | 259 | 1.6 | 4.8 | 0.00 | 0.00 | 0.00 | 64 | 1020.3 |
| 20260502113103 | 3 | 269 | 1.6 | 4.8 | 0.00 | 0.00 | 0.00 | 64 | 1020.3 |
| 20260502112603 | 2 | 239 | 1.6 | 4.8 | 0.00 | 0.00 | 0.00 | 64 | 1020.3 |
| 20260502112103 | 2 | 260 | 1.6 | 4.8 | 0.00 | 0.00 | 0.00 | 64 | 1020.3 |
| 20260502111603 | 2 | 243 | 1.6 | 8.0 | 0.00 | 0.00 | 0.00 | 64 | 1020.3 |
| 20260502110103 | 2 | 9 | 0.0 | 1.6 | 0.00 | 0.00 | 0.00 | 66 | 1020.3 |
| 20260502105603 | 2 | 9 | 0.0 | 1.6 | 0.00 | 0.00 | 0.00 | 66 | 1020.3 |
| 20260502105103 | 2 | 9 | 0.0 | 0.0 | 0.00 | 0.00 | 0.00 | 66 | 1020.3 |
| 20260502104603 | 2 | 9 | 0.0 | 1.6 | 0.00 | 0.00 | 0.00 | 67 | 1020.3 |
| 20260502104103 | 2 | 9 | 0.0 | 0.0 | 0.00 | 0.00 | 0.00 | 67 | 1020.3 |
| 20260502103603 | 2 | 9 | 0.0 | 0.0 | 0.00 | 0.00 | 0.00 | 68 | 1020.3 |
| 20260502103103 | 2 | 9 | 0.0 | 0.0 | 0.00 | 0.00 | 0.00 | 68 | 1020.3 |
| 20260502102603 | 2 | 9 | 0.0 | 0.0 | 0.00 | 0.00 | 0.00 | 68 | 1020.3 |
| 20260502102103 | 2 | 9 | 0.0 | 0.0 | 0.00 | 0.00 | 0.00 | 68 | 1020.3 |
| 20260502101603 | 1 | 9 | 0.0 | 0.0 | 0.00 | 0.00 | 0.00 | 67 | 1020.3 |
| 20260502101103 | 1 | 9 | 0.0 | 0.0 | 0.00 | 0.00 | 0.00 | 67 | 1020.3 |
| 20260502100603 | 1 | 9 | 0.0 | 0.0 | 0.00 | 0.00 | 0.00 | 68 | 1020.3 |
| 20260502091103 | 2 | 9 | 0.0 | 0.0 | 0.00 | 0.00 | 0.00 | 69 | 1020.3 |
| 20260502090604 | 1 | 9 | 0.0 | 0.0 | 0.00 | 0.00 | 0.00 | 70 | 1020.3 |
| 20260502071103 | 3 | 9 | 0.0 | 0.0 | 0.00 | 0.00 | 0.00 | 69 | 1020.3 |
| 20260502070603 | 3 | 9 | 0.0 | 0.0 | 0.00 | 0.00 | 0.00 | 69 | 1020.3 |
| 20260502065603 | 3 | 9 | 0.0 | 0.0 | 0.00 | 0.00 | 0.00 | 70 | 1020.7 |
| 20260502065103 | 3 | 9 | 0.0 | 0.0 | 0.00 | 0.00 | 0.00 | 69 | 1020.7 |
| 20260502064603 | 3 | 9 | 0.0 | 0.0 | 0.00 | 0.00 | 0.00 | 70 | 1020.7 |
| 20260502063103 | 4 | 9 | 0.0 | 0.0 | 0.00 | 0.00 | 0.00 | 71 | 1020.7 |
| 20260502062603 | 4 | 9 | 0.0 | 0.0 | 0.00 | 0.00 | 0.00 | 71 | 1020.7 |
| 20260502062103 | 4 | 9 | 0.0 | 0.0 | 0.00 | 0.00 | 0.00 | 69 | 1020.7 |
| 20260502061603 | 4 | 9 | 0.0 | 0.0 | 0.00 | 0.00 | 0.00 | 66 | 1020.7 |
| 20260502061103 | 4 | 9 | 0.0 | 0.0 | 0.00 | 0.00 | 0.00 | 65 | 1020.7 |
| 20260502060603 | 4 | 9 | 0.0 | 0.0 | 0.00 | 0.00 | 0.00 | 64 | 1020.7 |
| 20260502055103 | 4 | 9 | 0.0 | 0.0 | 0.00 | 0.00 | 0.00 | 64 | 1020.3 |
| 20260502054603 | 4 | 9 | 0.0 | 0.0 | 0.00 | 0.00 | 0.00 | 64 | 1020.3 |
| 20260502053603 | 4 | 9 | 0.0 | 0.0 | 0.00 | 0.00 | 0.00 | 69 | 1020.3 |
| 20260502053103 | 4 | 9 | 0.0 | 0.0 | 0.00 | 0.00 | 0.00 | 68 | 1020.3 |
| 20260502052103 | 4 | 9 | 0.0 | 0.0 | 0.00 | 0.00 | 0.00 | 67 | 1020.3 |
| 20260502051603 | 5 | 9 | 0.0 | 0.0 | 0.00 | 0.00 | 0.00 | 66 | 1020.3 |
| 20260502051103 | 5 | 9 | 0.0 | 0.0 | 0.00 | 0.00 | 0.00 | 67 | 1020.3 |
| 20260502045603 | 5 | 9 | 0.0 | 0.0 | 0.00 | 0.00 | 0.00 | 66 | 1020.3 |
| 20260502044603 | 5 | 9 | 0.0 | 0.0 | 0.00 | 0.00 | 0.00 | 65 | 1020.3 |
| 20260502043604 | 5 | 9 | 0.0 | 0.0 | 0.00 | 0.00 | 0.00 | 64 | 1020.3 |
| 20260502043103 | 5 | 9 | 0.0 | 0.0 | 0.00 | 0.00 | 0.00 | 63 | 1020.3 |
| 20260502042603 | 5 | 9 | 0.0 | 0.0 | 0.00 | 0.00 | 0.00 | 63 | 1020.3 |
| 20260502042104 | 5 | 9 | 0.0 | 0.0 | 0.00 | 0.00 | 0.00 | 63 | 1020.3 |
| 20260502041603 | 6 | 9 | 0.0 | 0.0 | 0.00 | 0.00 | 0.00 | 62 | 1020.3 |
| 20260502041103 | 6 | 9 | 0.0 | 0.0 | 0.00 | 0.00 | 0.00 | 62 | 1020.3 |
| 20260502040603 | 6 | 9 | 0.0 | 0.0 | 0.00 | 0.00 | 0.00 | 61 | 1020.3 |
| 20260502035603 | 6 | 9 | 0.0 | 0.0 | 0.00 | 0.00 | 0.00 | 60 | 1020.0 |
| 20260502035103 | 7 | 9 | 0.0 | 0.0 | 0.00 | 0.00 | 0.00 | 59 | 1020.0 |
| 20260502034603 | 7 | 9 | 0.0 | 0.0 | 0.00 | 0.00 | 0.00 | 59 | 1020.0 |
| 20260502034103 | 7 | 9 | 0.0 | 0.0 | 0.00 | 0.00 | 0.00 | 57 | 1020.0 |
| 20260502033604 | 7 | 9 | 0.0 | 0.0 | 0.00 | 0.00 | 0.00 | 57 | 1020.0 |
| 20260502033103 | 7 | 9 | 0.0 | 3.2 | 0.00 | 0.00 | 0.00 | 57 | 1020.0 |
| 20260502032603 | 7 | 9 | 0.0 | 1.6 | 0.00 | 0.00 | 0.00 | 57 | 1020.0 |
| 20260502032103 | 7 | 9 | 0.0 | 0.0 | 0.00 | 0.00 | 0.00 | 56 | 1020.0 |
| 20260502031603 | 7 | 9 | 0.0 | 0.0 | 0.00 | 0.00 | 0.00 | 55 | 1020.0 |
| 20260502030603 | 8 | 9 | 1.6 | 4.8 | 0.00 | 0.00 | 0.00 | 54 | 1020.0 |
| 20260502030103 | 8 | 5 | 4.8 | 8.0 | 0.00 | 0.00 | 0.00 | 54 | 1019.6 |
| 20260502025603 | 8 | 5 | 1.6 | 4.8 | 0.00 | 0.00 | 0.00 | 54 | 1019.6 |
| 20260502025103 | 8 | 5 | 3.2 | 8.0 | 0.00 | 0.00 | 0.00 | 54 | 1019.6 |
| 20260502024103 | 8 | 5 | 3.2 | 4.8 | 0.00 | 0.00 | 0.00 | 54 | 1019.6 |
| 20260502023103 | 8 | 12 | 3.2 | 8.0 | 0.00 | 0.00 | 0.00 | 53 | 1019.6 |
| 20260502022103 | 8 | 5 | 4.8 | 12.9 | 0.00 | 0.00 | 0.00 | 52 | 1019.6 |
| 20260502021603 | 8 | 8 | 3.2 | 8.0 | 0.00 | 0.00 | 0.00 | 53 | 1019.6 |
| 20260502021102 | 8 | 9 | 3.2 | 8.0 | 0.00 | 0.00 | 0.00 | 52 | 1019.6 |
| 20260502020603 | 8 | 355 | 4.8 | 8.0 | 0.00 | 0.00 | 0.00 | 52 | 1019.6 |
| 20260502020103 | 8 | 6 | 3.2 | 8.0 | 0.00 | 0.00 | 0.00 | 52 | 1019.0 |
| 20260502015602 | 8 | 342 | 3.2 | 4.8 | 0.00 | 0.00 | 0.00 | 51 | 1019.0 |
| 20260502014603 | 8 | 9 | 4.8 | 8.0 | 0.00 | 0.00 | 0.00 | 51 | 1019.0 |
| 20260502014103 | 8 | 5 | 4.8 | 8.0 | 0.00 | 0.00 | 0.00 | 50 | 1019.0 |
| 20260502013103 | 8 | 349 | 6.4 | 16.1 | 0.00 | 0.00 | 0.00 | 51 | 1019.0 |
| 20260502012603 | 8 | 3 | 4.8 | 16.1 | 0.00 | 0.00 | 0.00 | 50 | 1019.0 |
| 20260502011103 | 8 | 0 | 4.8 | 12.9 | 0.00 | 0.00 | 0.00 | 50 | 1019.0 |
| 20260502005603 | 9 | 341 | 9.7 | 12.9 | 0.00 | 0.00 | 0.00 | 49 | 1018.6 |
| 20260502005103 | 9 | 338 | 14.5 | 20.9 | 0.00 | 0.00 | 0.00 | 49 | 1018.6 |
| 20260502004603 | 9 | 330 | 8.0 | 16.1 | 0.00 | 0.00 | 0.00 | 48 | 1018.6 |
| 20260502004103 | 9 | 6 | 8.0 | 14.5 | 0.00 | 0.00 | 0.00 | 48 | 1018.6 |
| 20260502003603 | 9 | 349 | 12.9 | 19.3 | 0.00 | 0.00 | 0.00 | 48 | 1018.6 |
| 20260502003103 | 9 | 347 | 9.7 | 16.1 | 0.00 | 0.00 | 0.00 | 48 | 1018.6 |
| 20260502002603 | 9 | 7 | 8.0 | 16.1 | 0.00 | 0.00 | 0.00 | 48 | 1018.6 |
| 20260502002103 | 9 | 6 | 8.0 | 14.5 | 0.00 | 0.00 | 0.00 | 49 | 1018.6 |
| 20260502001103 | 9 | 30 | 9.7 | 19.3 | 0.00 | 0.00 | 0.00 | 49 | 1018.6 |
| 20260502000603 | 9 | 12 | 9.7 | 14.5 | 0.00 | 0.00 | 0.00 | 49 | 1018.6 |
| 20260501235603 | 10 | 7 | 9.7 | 16.1 | 0.00 | 0.00 | 0.00 | 49 | 1018.6 |
| 20260501235103 | 10 | 27 | 11.3 | 19.3 | 0.00 | 0.00 | 0.00 | 48 | 1018.6 |
| 20260501233603 | 10 | 359 | 8.0 | 16.1 | 0.00 | 0.00 | 0.00 | 45 | 1018.6 |
| 20260501233103 | 10 | 0 | 8.0 | 16.1 | 0.00 | 0.00 | 0.00 | 46 | 1018.6 |
| 20260501232603 | 10 | 16 | 8.0 | 16.1 | 0.00 | 0.00 | 0.00 | 46 | 1018.6 |
| 20260501231603 | 10 | 344 | 4.8 | 12.9 | 0.00 | 0.00 | 0.00 | 47 | 1018.6 |
| 20260501231103 | 10 | 3 | 11.3 | 19.3 | 0.00 | 0.00 | 0.00 | 46 | 1018.6 |
| 20260501225603 | 10 | 26 | 9.7 | 14.5 | 0.00 | 0.00 | 0.00 | 46 | 1018.6 |
| 20260501225102 | 10 | 348 | 8.0 | 12.9 | 0.00 | 0.00 | 0.00 | 45 | 1018.6 |
| 20260501224603 | 10 | 10 | 11.3 | 19.3 | 0.00 | 0.00 | 0.00 | 48 | 1018.6 |
| 20260501224103 | 9 | 328 | 9.7 | 14.5 | 0.00 | 0.00 | 0.00 | 49 | 1018.6 |
| 20260501223603 | 9 | 334 | 11.3 | 19.3 | 0.00 | 0.00 | 0.00 | 49 | 1018.6 |
| 20260501223103 | 9 | 14 | 16.1 | 20.9 | 0.00 | 0.00 | 0.00 | 50 | 1018.6 |
| 20260501222103 | 10 | 25 | 14.5 | 20.9 | 0.00 | 0.00 | 0.00 | 49 | 1018.6 |
| 20260501221103 | 9 | 7 | 12.9 | 20.9 | 0.00 | 0.00 | 0.00 | 50 | 1018.6 |
| 20260501220603 | 10 | 38 | 8.0 | 19.3 | 0.00 | 0.00 | 0.00 | 48 | 1018.6 |
| 20260501215603 | 10 | 30 | 11.3 | 19.3 | 0.00 | 0.00 | 0.00 | 47 | 1018.6 |
| 20260501215103 | 10 | 341 | 11.3 | 19.3 | 0.00 | 0.00 | 0.00 | 47 | 1018.6 |
| 20260501214604 | 10 | 334 | 11.3 | 19.3 | 0.00 | 0.00 | 0.00 | 48 | 1018.6 |
| 20260501214103 | 9 | 15 | 11.3 | 20.9 | 0.00 | 0.00 | 0.00 | 49 | 1018.6 |
| 20260501213104 | 9 | 339 | 14.5 | 24.1 | 0.00 | 0.00 | 0.00 | 50 | 1018.6 |
| 20260501212603 | 9 | 22 | 9.7 | 19.3 | 0.00 | 0.00 | 0.00 | 50 | 1018.6 |
| 20260501212103 | 9 | 1 | 11.3 | 19.3 | 0.00 | 0.00 | 0.00 | 48 | 1018.6 |
| 20260501211603 | 9 | 0 | 8.0 | 19.3 | 0.00 | 0.00 | 0.00 | 50 | 1018.6 |
| 20260501210603 | 9 | 0 | 9.7 | 20.9 | 0.00 | 0.00 | 0.00 | 51 | 1018.6 |
| 20260501210103 | 9 | 338 | 12.9 | 24.1 | 0.00 | 0.00 | 0.00 | 50 | 1019.0 |
| 20260501205604 | 10 | 13 | 12.9 | 20.9 | 0.00 | 0.00 | 0.00 | 50 | 1019.0 |
| 20260501205103 | 10 | 303 | 4.8 | 16.1 | 0.00 | 0.00 | 0.00 | 49 | 1019.0 |
| 20260501204603 | 10 | 2 | 14.5 | 22.5 | 0.00 | 0.00 | 0.00 | 48 | 1019.0 |
| 20260501204103 | 10 | 9 | 12.9 | 20.9 | 0.00 | 0.00 | 0.00 | 49 | 1019.0 |
| 20260501203603 | 9 | 344 | 3.2 | 19.3 | 0.00 | 0.00 | 0.00 | 48 | 1019.0 |
| 20260501203103 | 9 | 337 | 11.3 | 22.5 | 0.00 | 0.00 | 0.00 | 47 | 1019.0 |
| 20260501202603 | 10 | 341 | 12.9 | 22.5 | 0.00 | 0.00 | 0.00 | 48 | 1019.0 |
| 20260501202103 | 9 | 42 | 4.8 | 24.1 | 0.00 | 0.00 | 0.00 | 52 | 1019.0 |
| 20260501201603 | 9 | 2 | 11.3 | 24.1 | 0.00 | 0.00 | 0.00 | 50 | 1019.0 |
| 20260501201103 | 8 | 5 | 8.0 | 19.3 | 0.00 | 0.00 | 0.00 | 50 | 1019.0 |
| 20260501195603 | 8 | 15 | 12.9 | 19.3 | 0.00 | 0.00 | 0.00 | 52 | 1019.0 |
| 20260501195103 | 9 | 357 | 12.9 | 20.9 | 0.00 | 0.00 | 0.00 | 50 | 1019.0 |
| 20260501194103 | 8 | 350 | 8.0 | 16.1 | 0.00 | 0.00 | 0.00 | 51 | 1019.0 |
| 20260501193603 | 8 | 337 | 11.3 | 24.1 | 0.00 | 0.00 | 0.00 | 52 | 1019.0 |
| 20260501193103 | 8 | 335 | 12.9 | 22.5 | 0.00 | 0.00 | 0.00 | 51 | 1019.0 |
| 20260501191103 | 8 | 19 | 12.9 | 22.5 | 0.00 | 0.00 | 0.00 | 52 | 1019.0 |
| 20260501190603 | 8 | 352 | 11.3 | 19.3 | 0.00 | 0.00 | 0.00 | 52 | 1019.0 |
| 20260501185103 | 8 | 336 | 9.7 | 20.9 | 0.00 | 0.00 | 0.00 | 54 | 1019.0 |
| 20260501184603 | 8 | 321 | 14.5 | 20.9 | 0.00 | 0.00 | 0.00 | 52 | 1019.0 |
| 20260501184103 | 8 | 8 | 9.7 | 16.1 | 0.00 | 0.00 | 0.00 | 53 | 1019.0 |
| 20260501183603 | 8 | 334 | 6.4 | 12.9 | 0.00 | 0.00 | 0.00 | 52 | 1019.0 |
| 20260501183103 | 8 | 3 | 9.7 | 19.3 | 0.00 | 0.00 | 0.00 | 53 | 1019.0 |
| 20260501182603 | 7 | 25 | 14.5 | 22.5 | 0.00 | 0.00 | 0.00 | 54 | 1019.0 |
| 20260501182103 | 8 | 335 | 9.7 | 19.3 | 0.00 | 0.00 | 0.00 | 55 | 1019.0 |
| 20260501181603 | 8 | 7 | 16.1 | 24.1 | 0.00 | 0.00 | 0.00 | 54 | 1019.0 |
| 20260501181103 | 8 | 333 | 16.1 | 24.1 | 0.00 | 0.00 | 0.00 | 55 | 1019.0 |